WATER LEVELS

Guaranteed water level and forecast    Ústí nad Labem-Střekov

Guaranteed water level
145 cm
on 27.05.2020 more information
Forecast
140 cm
on 28.05.2020 07:00
Tendency
steady state
on 28.05.2020 metodika tendence
Forecast
(Source data ČHMÚ a Povodí Labe)

Ústí nad Labem

Date and time (UTC) H (cm) Q (m3/s)
28. 5. 2020 04:40 153 110
28. 5. 2020 04:00 159 119
28. 5. 2020 03:00 159 119
28. 5. 2020 02:00 159 119
28. 5. 2020 01:00 158 118
28. 5. 2020 00:00 158 118
27. 5. 2020 23:00 157 116
27. 5. 2020 22:00 153 110
27. 5. 2020 21:00 152 109
27. 5. 2020 20:00 151 107
27. 5. 2020 19:00 151 107
27. 5. 2020 18:00 152 109
27. 5. 2020 17:00 152 109
27. 5. 2020 16:00 151 107

H - water level, Q - discharge
more information

Mělník

Date and time (UTC) H (cm) Q (m3/s)
28. 5. 2020 04:50 263 -
28. 5. 2020 04:00 259 -
28. 5. 2020 03:00 259 -
28. 5. 2020 02:00 258 -
28. 5. 2020 01:00 258 -
28. 5. 2020 00:00 260 -
27. 5. 2020 23:00 257 -
27. 5. 2020 22:00 258 -
27. 5. 2020 21:00 259 -
27. 5. 2020 20:00 257 -
27. 5. 2020 19:00 258 -
27. 5. 2020 18:00 261 -
27. 5. 2020 17:00 263 -
27. 5. 2020 16:00 262 -

H - water level, Q - discharge
more information

Kostelec nad Labem

Date and time (UTC) H (cm) Q (m3/s)
28. 5. 2020 05:00 396 -
28. 5. 2020 04:00 397 37
28. 5. 2020 03:00 396 38
28. 5. 2020 02:00 395 32
28. 5. 2020 01:00 395 29
28. 5. 2020 00:00 395 31
27. 5. 2020 23:00 395 32
27. 5. 2020 22:00 396 35
27. 5. 2020 21:00 395 35
27. 5. 2020 20:00 395 33
27. 5. 2020 19:00 397 39
27. 5. 2020 18:00 395 39
27. 5. 2020 17:00 396 39

H - water level, Q - discharge
more information

Přelouč

Date and time (UTC) H (cm) Q (m3/s)
28. 5. 2020 05:00 52 22.9
28. 5. 2020 04:00 25 10
28. 5. 2020 03:00 51 22
28. 5. 2020 02:00 80 43
28. 5. 2020 01:00 46 20
28. 5. 2020 00:00 28 11
27. 5. 2020 23:00 79 42
27. 5. 2020 22:00 60 28
27. 5. 2020 21:00 49 21
27. 5. 2020 20:00 81 44
27. 5. 2020 19:00 36 15
27. 5. 2020 18:00 72 37
27. 5. 2020 17:00 35 14

H - water level, Q - discharge
more information

Praha-Chuchle

Date and time (UTC) H (cm) Q (m3/s)
28. 5. 2020 04:50 42 40.8
28. 5. 2020 04:00 42 41
28. 5. 2020 03:00 42 41
28. 5. 2020 02:00 42 41
28. 5. 2020 01:00 42 41
28. 5. 2020 00:00 42 41
27. 5. 2020 23:00 42 41
27. 5. 2020 22:00 42 41
27. 5. 2020 21:00 42 41
27. 5. 2020 20:00 42 41
27. 5. 2020 19:00 42 41
27. 5. 2020 18:00 42 41
27. 5. 2020 17:00 45 51
27. 5. 2020 16:00 42 41

H - water level, Q - discharge
more information

České Budějovice

Date and time (UTC) H (cm) Q (m3/s)
28. 5. 2020 05:00 100 10.5
28. 5. 2020 04:00 100 10
28. 5. 2020 03:00 99 10
28. 5. 2020 02:00 99 10
28. 5. 2020 01:00 100 10
28. 5. 2020 00:00 99 10
27. 5. 2020 23:00 100 11
27. 5. 2020 22:00 99 10
27. 5. 2020 21:00 101 11
27. 5. 2020 20:00 97 11
27. 5. 2020 19:00 101 9
27. 5. 2020 18:00 97 11
27. 5. 2020 17:00 97 12

H - water level, Q - discharge
more information
Source data
Labe Basin Vltava Basin Povodí Moravy ČHMÚ